Wetbulb
55.75 55.55 55.56 55.45 55.01 54.72 54.80 54.70 54.89 55.31 55.13 55.69 55.72 55.80 55.92 56.25 55.95 49.97 45.08 52.16 53.51 58.81 58.46 52.68 52.04 50.03 46.74 42.79 43.88 42.86 33.49 28.69 32.46 35.42 37.98 42.47 41.47 47.12 49.96 48.10 49.31 50.52 50.94 53.70 61.90
55.45 55.08 55.04 54.85 54.62 54.42 54.54 54.54 54.60 55.17 55.39 55.63 55.90 55.87 55.94 56.61 49.85 47.92 55.59 59.92 60.13 58.92 51.76 49.63 47.61 48.19 42.76 40.47 41.14 38.50 31.10 33.39 39.49 40.75 40.05 43.18 43.15 45.03 46.65 47.14 47.38 48.83 52.39 63.09 67.30
55.01 55.02 55.07 54.73 54.38 53.89 53.93 54.14 54.40 55.30 55.66 55.78 55.76 56.00 56.33 56.10 46.27 48.22 59.44 60.69 59.77 57.36 52.73 50.82 48.73 45.69 40.49 41.42 40.70 36.52 34.21 39.11 41.70 42.76 42.91 43.36 43.89 46.61 45.26 43.62 45.87 46.76 50.06 60.82 66.23
54.68 54.76 54.40 54.28 53.99 53.49 53.49 53.65 54.20 54.80 55.04 55.02 55.28 56.01 56.89 51.00 36.87 51.25 61.27 60.96 59.93 56.22 52.13 48.34 45.09 40.02 38.51 37.31 41.07 37.14 41.82 42.27 41.18 43.63 42.38 42.29 44.28 43.46 44.47 45.01 48.60 49.50 50.95 56.62 66.34
54.24 54.38 54.26 53.95 53.51 53.36 53.37 53.51 53.63 53.90 54.46 54.77 55.16 56.16 51.83 45.22 45.79 54.75 62.10 60.66 57.23 54.50 49.73 46.40 41.79 38.62 35.30 37.84 39.58 38.22 40.87 42.98 43.23 42.38 42.66 44.37 43.80 44.03 44.56 47.37 48.87 49.76 50.79 53.53 59.54
54.44 54.34 54.14 54.31 54.08 54.06 53.86 53.58 53.64 53.85 54.26 54.90 55.94 56.45 48.36 40.38 52.55 56.65 57.81 55.52 54.60 51.21 49.60 46.44 42.79 42.88 38.35 37.41 35.67 40.01 40.76 41.32 41.37 40.65 41.24 42.50 43.77 43.00 45.44 47.74 47.64 49.08 49.73 51.25 56.52
54.89 54.09 53.97 54.08 54.24 54.28 54.48 54.48 54.23 54.42 54.46 55.04 56.35 53.99 47.03 46.17 54.95 56.18 56.53 53.02 53.30 53.35 48.61 49.22 46.81 42.94 40.86 37.55 39.63 40.19 36.00 39.19 39.96 40.04 41.24 43.90 40.62 41.70 45.71 46.47 46.08 47.37 49.17 50.52 60.20
54.72 54.15 54.01 54.40 54.75 54.67 54.72 54.68 54.13 54.30 54.58 55.85 55.81 50.70 44.95 53.23 52.87 52.32 53.94 53.66 53.33 51.72 50.54 51.12 47.35 42.52 39.51 40.10 39.96 35.86 32.79 28.08 36.22 40.54 41.42 40.41 34.48 42.91 45.11 44.36 44.49 46.24 47.95 49.93 54.28
54.50 53.92 53.59 53.96 54.58 54.82 54.56 54.17 54.21 54.59 55.40 56.06 50.10 47.40 45.19 56.68 53.09 55.27 53.78 51.74 51.98 52.36 51.53 53.46 46.17 41.91 40.27 34.46 32.19 31.58 27.56 29.66 34.49 38.93 39.40 38.96 34.98 40.98 43.64 43.77 43.80 44.92 46.15 47.72 49.29
54.40 53.68 53.57 53.43 54.11 54.39 54.01 53.54 53.66 53.16 54.14 55.40 53.40 44.75 47.03 48.81 52.59 52.76 51.94 52.34 50.80 50.08 48.35 46.07 41.36 37.32 34.18 32.31 28.10 31.36 31.64 34.35 34.27 38.10 38.07 36.47 36.50 41.18 42.02 42.48 42.47 43.52 45.56 46.36 48.52
54.32 53.66 53.47 53.66 53.70 53.76 49.61 48.74 44.82 43.93 48.05 45.07 46.52 47.37 50.04 53.47 54.94 51.76 54.18 51.92 50.76 46.44 40.02 43.21 37.55 35.04 38.66 37.93 38.60 38.03 35.74 34.18 37.69 42.36 39.97 38.77 37.99 39.61 41.83 41.10 40.87 41.59 43.75 45.02 46.24
53.87 53.58 53.62 53.57 53.51 53.18 47.81 47.18 49.37 48.86 43.56 49.64 49.79 50.02 52.48 53.48 49.03 50.64 54.24 47.20 45.38 40.27 42.58 40.15 36.62 42.73 44.06 42.49 40.58 38.70 36.19 35.58 39.52 42.13 37.92 37.95 37.52 40.86 42.49 42.59 42.75 42.82 43.30 44.75 45.88
53.00 53.08 53.26 53.39 52.88 48.79 47.50 50.38 53.50 49.87 41.22 47.33 50.03 47.07 46.30 47.57 46.98 48.12 51.16 47.99 44.03 40.75 40.49 37.69 41.18 45.23 43.59 40.59 38.86 38.11 36.46 36.72 36.54 40.41 40.30 37.79 35.22 38.14 42.20 43.62 44.11 44.46 45.03 46.34 46.30
52.73 52.67 52.81 52.42 47.40 46.44 46.48 50.34 50.39 51.25 34.16 40.08 43.46 45.80 47.39 46.51 44.89 52.69 52.99 48.64 43.84 40.64 41.56 39.66 43.39 42.88 40.06 38.77 40.33 35.30 41.56 40.07 38.69 36.33 31.01 38.79 27.33 35.52 39.18 39.37 41.07 42.67 43.67 45.83 47.03
52.32 52.65 52.67 51.90 45.08 44.94 48.57 48.33 48.02 48.10 22.78 42.60 43.54 48.58 47.06 44.00 45.80 45.64 52.38 48.90 41.73 41.79 40.44 37.52 39.07 38.40 37.31 38.47 42.76 38.32 43.27 41.18 39.97 37.22 35.54 35.27 31.98 33.74 37.51 36.62 39.06 41.83 43.74 45.53 46.76
52.19 52.31 51.95 49.34 45.70 48.36 49.72 47.94 48.12 32.67 25.24 39.02 43.64 42.12 40.72 44.29 44.31 45.54 47.82 47.67 46.43 40.47 40.45 40.27 43.03 40.95 39.58 43.55 43.88 44.69 41.31 40.25 39.81 35.81 28.94 33.39 31.87 31.08 34.39 36.73 39.47 41.62 43.84 45.62 45.57
51.60 51.94 49.80 50.24 46.92 47.73 48.17 46.05 33.32 25.90 39.84 37.03 38.93 40.78 39.42 39.81 41.13 42.21 39.98 38.52 35.21 30.88 33.27 36.78 37.56 41.01 44.72 39.03 41.66 41.14 37.30 30.55 27.22 28.35 26.01 34.55 31.40 32.01 38.16 40.06 41.03 41.70 42.84 43.38 44.91
49.98 50.25 50.40 51.03 49.56 48.84 44.11 37.91 28.29 36.40 36.99 42.32 41.66 40.26 36.97 39.51 39.06 39.62 36.83 36.00 39.06 36.21 32.02 30.73 29.46 38.39 43.24 40.34 38.45 38.87 37.54 30.57 23.77 25.86 28.24 33.76 27.47 31.74 44.04 43.83 45.71 43.14 43.60 44.20 43.63
48.81 48.82 49.58 50.38 48.78 46.20 41.22 30.93 30.78 36.15 41.52 40.03 39.31 35.66 35.07 38.81 37.93 36.09 35.14 36.45 39.06 37.49 31.59 30.96 32.75 42.34 42.91 43.96 43.00 39.84 35.90 39.75 31.69 34.21 29.60 28.73 33.47 39.14 45.41 45.90 47.90 49.86 45.81 44.17 43.31
43.38 46.53 48.03 49.29 48.38 45.28 37.86 35.64 36.56 43.19 43.70 41.75 33.61 37.04 32.23 35.27 34.71 33.67 34.02 40.00 42.05 41.61 39.06 35.49 32.63 40.33 42.97 44.28 45.69 41.69 42.70 35.62 33.62 26.77 26.47 31.76 32.68 35.35 41.06 43.32 46.17 47.94 48.43 49.92 44.50
43.43 43.57 48.98 49.61 47.39 41.15 32.63 34.52 40.61 45.32 44.33 40.03 36.34 35.37 35.73 35.26 35.34 33.57 35.22 39.92 43.64 41.13 39.93 36.48 36.82 36.32 39.84 39.75 37.28 39.40 37.84 39.94 36.93 34.53 29.37 28.76 34.17 43.59 43.49 45.14 46.19 48.34 48.72 49.28 47.28
39.62 38.17 48.23 47.45 38.74 34.80 34.14 39.26 43.67 43.24 44.20 42.57 40.46 38.60 36.63 36.89 34.37 34.92 35.33 39.18 44.34 41.81 36.98 38.59 35.48 34.10 35.27 41.24 44.61 42.89 40.73 40.32 34.73 33.03 33.28 34.56 34.74 44.72 46.25 47.41 48.67 48.48 49.44 51.34 49.81
38.30 38.96 47.67 45.88 32.83 33.03 37.73 41.38 43.81 41.65 39.85 39.97 39.14 40.50 39.43 35.65 32.22 36.86 38.81 44.03 43.67 40.97 37.29 37.87 32.69 31.17 31.52 35.62 41.68 39.37 40.46 42.28 41.81 39.18 34.06 32.17 34.54 45.74 47.08 48.11 48.97 48.80 52.60 54.33 48.49
40.10 35.74 38.80 38.19 37.59 35.61 34.80 36.91 37.87 42.84 40.81 40.45 40.05 40.47 37.53 34.79 37.02 35.18 37.02 41.88 43.15 42.88 47.17 44.24 34.32 35.94 30.78 34.24 39.01 38.34 41.23 42.51 41.53 35.74 33.44 32.94 35.08 43.58 45.68 46.62 47.35 50.11 55.89 49.71 51.94
39.57 35.94 36.07 32.54 35.44 35.13 34.90 37.16 36.17 35.99 39.84 39.75 37.88 38.37 35.86 32.17 33.48 34.45 37.92 39.02 42.42 45.62 43.54 42.33 35.65 37.25 37.74 39.59 41.37 41.66 41.52 42.51 40.98 40.56 32.70 37.25 38.85 43.76 46.22 47.01 46.47 51.08 54.48 55.76 57.12
38.16 37.17 38.28 36.25 36.58 36.04 35.54 34.33 36.25 37.85 36.29 36.21 34.85 37.46 37.41 32.92 35.03 34.79 37.33 36.62 38.00 40.30 39.67 41.85 36.82 38.39 35.53 40.58 41.77 39.73 40.82 41.42 42.66 41.53 42.08 42.38 43.01 48.43 48.52 47.52 44.94 45.72 52.07 53.77 54.24
38.79 39.70 38.18 36.82 34.83 33.78 34.12 36.25 37.50 38.16 38.80 40.28 38.31 36.36 36.69 38.72 40.93 41.50 41.49 41.48 42.71 41.27 39.43 40.62 39.44 36.48 31.07 37.44 38.69 36.53 39.31 40.48 42.57 42.41 42.61 39.85 44.25 48.20 46.65 45.40 44.74 43.75 47.46 50.49 52.56
MSLP
1018.49 1018.19 1017.90 1017.58 1017.25 1017.01 1016.75 1016.52 1016.26 1015.97 1015.74 1015.45 1015.05 1014.84 1014.47 1014.11 1013.68 1013.36 1012.96 1011.85 1011.60 1011.22 1011.12 1010.97 1010.57 1010.59 1010.66 1011.06 1011.10 1011.56 1012.62 1012.51 1011.36 1010.31 1009.13 1008.11 1007.75 1006.69 1005.92 1005.57 1005.18 1004.30 1003.26 1002.32 1001.38
1018.41 1018.07 1017.77 1017.47 1017.24 1016.97 1016.70 1016.44 1016.17 1015.89 1015.66 1015.20 1014.84 1014.65 1014.35 1013.92 1013.70 1012.78 1011.59 1011.39 1011.39 1011.35 1011.39 1011.35 1011.22 1011.00 1011.08 1011.20 1011.30 1011.84 1012.50 1011.87 1010.87 1010.00 1009.05 1008.10 1007.63 1007.17 1006.12 1005.02 1004.83 1004.20 1002.69 1001.91 1000.95
1018.24 1017.86 1017.53 1017.28 1017.11 1016.91 1016.63 1016.37 1016.13 1015.88 1015.58 1015.16 1014.80 1014.42 1014.06 1013.77 1013.35 1011.97 1011.13 1011.19 1011.26 1011.28 1011.33 1011.34 1011.34 1011.33 1011.53 1011.51 1011.41 1011.58 1011.62 1011.12 1010.43 1009.56 1008.85 1008.08 1007.45 1006.79 1005.98 1004.75 1004.79 1004.17 1003.30 1002.54 1002.65
1018.19 1017.74 1017.39 1017.07 1016.88 1016.74 1016.53 1016.31 1016.12 1015.95 1015.65 1015.21 1014.87 1014.38 1013.75 1013.72 1012.98 1011.25 1010.81 1010.91 1011.06 1011.20 1011.20 1011.12 1011.27 1011.57 1011.92 1011.95 1011.67 1011.77 1011.03 1010.62 1010.04 1009.27 1008.82 1008.08 1007.21 1006.27 1005.71 1005.00 1004.39 1004.00 1003.43 1002.87 1002.68
1018.11 1017.71 1017.34 1017.01 1016.71 1016.47 1016.30 1016.17 1016.05 1015.90 1015.62 1015.21 1014.79 1014.28 1013.69 1013.09 1011.81 1010.67 1010.68 1010.98 1011.17 1011.23 1011.13 1011.16 1011.24 1011.47 1011.90 1012.00 1011.83 1011.28 1010.79 1010.33 1009.65 1009.24 1008.69 1007.80 1006.80 1006.37 1005.10 1004.72 1003.75 1003.36 1003.15 1002.87 1002.61
1018.15 1017.67 1017.21 1016.79 1016.47 1016.20 1016.03 1015.98 1015.85 1015.79 1015.63 1015.30 1014.82 1014.48 1014.15 1012.64 1010.65 1010.47 1010.77 1011.14 1011.14 1011.23 1011.09 1011.06 1010.98 1011.06 1011.41 1011.66 1011.92 1011.24 1010.59 1009.90 1009.15 1008.72 1008.07 1007.38 1006.25 1005.91 1004.85 1004.20 1003.40 1002.90 1002.61 1002.58 1002.34
1018.03 1017.58 1017.07 1016.59 1016.18 1015.80 1015.69 1015.74 1015.64 1015.65 1015.51 1015.24 1014.89 1014.65 1013.96 1011.74 1010.48 1010.59 1010.94 1010.93 1010.76 1010.83 1010.81 1010.39 1010.48 1010.89 1011.26 1011.59 1011.25 1011.10 1010.65 1009.45 1008.51 1007.81 1007.34 1006.57 1005.57 1004.99 1004.48 1003.97 1003.22 1002.62 1002.39 1002.11 1001.90
1017.83 1017.34 1016.90 1016.45 1015.97 1015.50 1015.30 1015.33 1015.39 1015.32 1015.23 1015.14 1014.89 1014.75 1013.16 1010.81 1010.69 1010.74 1010.83 1010.74 1010.44 1010.33 1010.44 1009.92 1010.30 1010.75 1011.37 1011.41 1011.30 1011.34 1011.08 1010.34 1008.59 1007.98 1007.27 1006.76 1005.33 1004.49 1004.23 1003.99 1003.38 1002.70 1002.48 1002.04 1001.95
1017.72 1017.11 1016.66 1016.21 1015.77 1015.49 1015.18 1015.04 1015.14 1015.10 1015.07 1015.05 1014.97 1014.47 1012.13 1010.60 1010.67 1009.71 1010.30 1010.47 1009.85 1009.85 1009.84 1009.75 1010.31 1010.85 1011.17 1011.75 1012.03 1011.57 1011.27 1010.30 1009.09 1008.08 1007.47 1006.56 1005.30 1004.23 1004.07 1003.97 1003.39 1002.69 1002.61 1002.32 1002.12
1017.56 1017.01 1016.40 1015.90 1015.52 1015.28 1014.98 1014.83 1014.92 1014.97 1014.98 1014.75 1014.61 1014.27 1011.53 1010.26 1009.64 1009.21 1009.34 1009.78 1009.97 1009.95 1010.04 1010.08 1010.66 1011.31 1011.83 1012.30 1011.80 1011.39 1010.95 1009.86 1009.14 1008.04 1007.49 1006.02 1004.95 1004.02 1003.78 1003.67 1003.22 1002.53 1002.28 1002.37 1001.83
1017.32 1016.71 1016.19 1015.60 1015.19 1014.97 1014.95 1015.02 1015.14 1014.83 1014.64 1013.78 1013.15 1012.65 1010.91 1009.66 1008.96 1008.74 1009.02 1009.48 1009.86 1010.28 1010.77 1010.65 1011.30 1011.37 1010.81 1010.75 1010.80 1010.83 1010.34 1009.07 1007.95 1007.98 1007.53 1005.95 1005.13 1004.10 1003.18 1003.29 1002.91 1002.23 1001.73 1002.12 1001.78
1017.11 1016.40 1015.72 1015.27 1014.95 1014.73 1014.74 1014.46 1013.49 1013.37 1013.34 1012.41 1012.28 1011.82 1010.51 1009.69 1009.27 1009.02 1009.10 1009.81 1010.16 1010.54 1010.89 1011.35 1010.77 1009.70 1009.99 1009.94 1010.18 1010.01 1009.58 1008.36 1007.15 1007.09 1006.96 1005.93 1004.30 1003.46 1003.18 1002.21 1002.12 1001.80 1001.10 1001.33 1001.51
1016.92 1016.00 1015.37 1014.79 1014.50 1014.72 1014.51 1013.40 1012.48 1012.92 1013.40 1011.92 1011.35 1011.03 1010.26 1009.84 1009.80 1009.54 1009.66 1009.89 1010.42 1010.83 1011.07 1011.34 1009.67 1009.45 1009.57 1009.47 1009.62 1009.31 1009.08 1008.12 1007.40 1006.29 1006.14 1005.83 1003.65 1003.12 1002.12 1001.64 1001.08 1000.82 1000.12 1000.18 1000.64
1016.66 1015.85 1014.97 1014.65 1014.83 1014.40 1013.59 1012.47 1012.46 1012.83 1013.37 1012.44 1011.57 1010.91 1010.50 1010.13 1010.23 1009.99 1009.78 1010.18 1010.59 1010.97 1011.06 1010.71 1009.62 1009.53 1009.37 1009.18 1009.11 1008.59 1007.18 1006.89 1006.71 1006.88 1005.72 1005.08 1003.16 1001.89 1001.36 1000.92 1000.74 999.89 999.54 999.19 999.60
1016.20 1015.58 1014.84 1014.46 1014.23 1013.81 1012.47 1012.21 1012.17 1012.79 1013.90 1012.91 1011.92 1011.04 1011.32 1011.77 1011.22 1010.55 1010.32 1010.27 1010.84 1011.16 1011.72 1010.58 1009.61 1009.47 1009.12 1008.53 1008.16 1007.08 1006.53 1006.60 1006.47 1005.95 1005.78 1004.43 1003.97 1001.16 1000.51 999.97 999.68 999.20 998.66 997.94 998.44
1015.74 1015.18 1014.86 1014.58 1014.47 1012.72 1012.21 1012.16 1012.36 1013.71 1014.16 1013.34 1012.60 1011.97 1012.12 1011.88 1011.58 1010.99 1010.89 1011.05 1011.36 1011.60 1011.46 1010.57 1009.60 1009.12 1008.38 1007.83 1007.44 1006.67 1006.78 1006.66 1006.53 1006.41 1005.66 1003.83 1004.16 1000.22 999.68 998.76 998.59 998.41 997.99 997.18 997.54
1015.36 1014.61 1014.66 1014.05 1013.22 1012.37 1012.13 1012.70 1014.02 1014.67 1014.75 1014.10 1013.21 1012.96 1012.93 1012.79 1012.40 1012.09 1012.09 1012.66 1012.91 1012.66 1012.08 1010.94 1009.54 1008.62 1008.15 1007.89 1007.34 1007.56 1007.74 1007.08 1006.83 1006.21 1004.91 1003.41 1003.22 1000.31 999.08 998.26 997.98 997.72 997.01 996.72 996.74
1015.08 1014.37 1014.06 1013.46 1012.47 1012.36 1012.81 1013.90 1015.15 1015.57 1015.07 1014.25 1014.02 1013.61 1013.61 1013.45 1013.25 1012.96 1012.77 1013.24 1013.41 1013.76 1013.34 1012.48 1010.37 1009.07 1008.27 1008.45 1008.00 1007.78 1008.48 1008.05 1007.29 1006.30 1004.77 1003.35 1002.32 1000.10 998.72 998.25 997.66 997.23 996.91 996.34 995.98
1015.17 1014.45 1014.05 1013.15 1012.39 1012.48 1013.85 1015.58 1015.91 1015.44 1015.01 1014.69 1014.41 1014.21 1014.13 1014.02 1014.07 1013.80 1013.46 1013.39 1013.34 1013.65 1014.26 1013.39 1011.21 1009.11 1008.63 1007.81 1007.67 1007.66 1008.04 1007.77 1007.57 1006.38 1005.39 1003.12 1001.08 999.73 998.75 997.92 997.97 997.89 997.15 996.72 995.86
1017.04 1016.15 1014.61 1013.20 1012.70 1013.28 1014.82 1016.03 1015.66 1014.87 1014.55 1014.60 1014.94 1014.95 1014.89 1014.51 1014.41 1014.12 1013.73 1013.27 1013.29 1013.40 1013.67 1013.58 1011.89 1009.29 1008.03 1007.59 1007.16 1007.45 1007.54 1007.55 1007.47 1006.33 1005.02 1002.71 1001.65 1000.94 999.60 999.01 998.68 998.45 998.13 997.12 996.55
1017.51 1016.59 1014.30 1013.32 1013.22 1015.13 1016.75 1016.47 1015.50 1014.48 1014.39 1014.57 1014.75 1015.01 1015.18 1015.05 1014.69 1014.39 1013.89 1013.33 1013.10 1013.11 1013.41 1013.34 1013.16 1009.98 1009.00 1007.75 1007.57 1007.36 1007.15 1007.21 1007.04 1006.47 1005.12 1003.58 1002.10 1001.36 1000.63 999.90 998.94 998.68 998.05 997.57 996.84
1019.59 1018.15 1014.99 1013.93 1015.59 1017.42 1017.72 1016.90 1015.72 1014.80 1014.37 1014.30 1014.41 1014.79 1014.93 1015.01 1014.69 1014.47 1013.96 1013.32 1012.92 1012.98 1013.08 1012.93 1012.88 1011.52 1009.54 1007.79 1007.42 1007.22 1006.67 1006.73 1006.57 1005.74 1004.96 1004.14 1002.57 1001.27 1000.71 1000.01 999.26 998.37 997.52 996.83 996.12
1020.97 1019.36 1016.16 1015.68 1017.97 1018.81 1018.19 1017.12 1016.07 1015.28 1014.86 1014.68 1014.70 1014.61 1014.72 1014.93 1015.05 1014.30 1013.70 1012.83 1012.78 1012.79 1012.73 1012.85 1012.82 1011.85 1009.18 1007.94 1007.28 1006.99 1006.47 1005.98 1005.66 1005.40 1004.69 1004.18 1002.84 1001.61 1000.97 999.92 999.13 998.32 996.58 995.33 994.92
1021.44 1020.68 1019.01 1019.07 1019.61 1019.88 1019.45 1018.28 1017.18 1016.00 1015.47 1015.30 1015.10 1014.83 1015.24 1015.15 1014.91 1014.52 1013.96 1012.85 1012.57 1012.51 1012.27 1012.58 1012.79 1012.45 1011.54 1010.01 1008.85 1007.68 1006.58 1006.00 1005.77 1005.47 1005.11 1004.46 1003.75 1002.37 1001.24 1000.21 999.15 997.89 996.45 995.05 995.22
1022.13 1022.24 1021.99 1021.33 1020.54 1020.54 1020.07 1019.00 1018.09 1017.23 1016.28 1015.89 1015.54 1015.83 1015.88 1015.62 1015.08 1014.60 1014.00 1013.33 1012.25 1012.18 1012.39 1012.49 1012.51 1011.75 1010.48 1009.28 1008.30 1007.56 1006.87 1006.21 1005.88 1006.10 1005.55 1004.09 1003.38 1003.20 1002.09 1001.37 1000.27 999.40 998.23 997.29 996.73
1022.94 1023.04 1022.73 1022.19 1021.41 1020.91 1020.23 1019.44 1018.89 1018.08 1017.69 1016.59 1016.47 1015.95 1015.56 1015.41 1014.95 1014.55 1014.19 1013.79 1013.12 1012.28 1012.36 1012.34 1012.04 1011.24 1009.79 1008.47 1007.64 1007.38 1007.34 1006.89 1006.46 1006.48 1005.67 1004.61 1003.06 1003.59 1002.86 1002.09 1001.77 1001.09 1000.32 999.61 999.18
1023.23 1023.28 1023.20 1022.34 1021.73 1021.30 1020.66 1020.30 1019.32 1018.95 1017.56 1016.91 1016.53 1016.13 1015.45 1014.68 1014.28 1013.54 1013.19 1012.74 1012.78 1012.55 1012.34 1012.33 1012.03 1011.23 1009.91 1008.63 1007.28 1007.42 1007.71 1007.47 1007.04 1007.02 1006.38 1005.36 1004.84 1004.31 1003.96 1004.09 1003.67 1002.79 1002.59 1001.78 1001.18
Wind_Speed
17 16 15 13 13 12 12 11 11 11 12 13 14 14 15 16 14 3 2 6 5 7 7 7 2 4 2 1 2 3 3 3 5 3 6 7 6 7 7 7 6 7 6 13 11
17 17 16 15 14 13 12 11 11 11 11 13 15 15 15 16 2 1 7 7 8 6 3 6 6 8 3 1 0 4 4 7 6 5 8 12 9 10 12 19 11 9 16 17 17
19 17 16 15 14 13 13 12 11 11 12 14 15 16 16 9 2 3 4 8 7 3 2 2 2 1 3 4 2 1 5 5 9 11 10 15 14 11 16 19 7 9 15 7 5
19 18 17 16 14 12 12 11 11 11 12 14 15 16 17 0 4 3 10 9 5 2 3 3 4 4 3 4 4 5 8 6 6 6 7 10 6 10 13 15 12 14 8 7 8
19 17 16 15 13 11 11 10 10 10 10 12 13 15 6 3 2 4 11 6 2 3 2 2 3 2 2 4 5 6 3 7 8 9 7 10 13 14 18 10 12 13 12 9 9
18 17 15 14 13 12 11 9 10 8 8 10 11 11 3 2 2 5 6 2 5 2 2 4 2 4 3 4 1 4 10 12 8 10 7 10 12 4 8 10 11 11 10 8 12
18 17 15 13 12 12 11 8 7 8 7 6 7 4 2 5 1 3 7 5 3 4 3 4 4 3 0 6 4 6 10 12 9 6 6 7 12 10 8 7 11 11 9 6 10
19 17 17 15 12 12 11 9 7 6 4 4 2 1 6 3 1 3 4 7 7 8 6 7 4 3 3 3 6 5 3 4 7 7 7 4 10 10 4 6 10 12 10 7 5
19 17 17 16 14 12 11 9 7 6 4 4 1 2 8 5 3 7 7 8 2 4 5 3 3 5 1 1 5 2 6 7 8 1 6 5 10 7 6 8 9 10 9 8 4
20 18 16 16 15 12 11 4 1 2 2 3 3 3 4 3 5 4 8 9 7 1 5 1 2 2 2 3 8 8 9 11 14 3 7 18 20 18 6 7 10 11 9 6 9
21 19 17 15 15 10 3 4 5 3 1 5 6 4 11 8 5 5 3 4 2 2 4 3 1 10 17 14 15 14 14 21 19 10 14 23 20 19 11 8 8 11 9 7 10
23 21 19 14 12 4 1 2 4 4 7 6 5 6 9 5 4 1 3 1 1 6 2 5 11 19 11 13 14 15 17 22 20 13 10 13 21 19 15 19 12 12 14 11 7
24 22 19 17 6 3 0 5 2 4 2 7 1 2 7 5 5 6 5 2 5 4 5 7 17 16 11 5 5 9 13 18 19 17 12 16 24 18 19 17 16 14 15 12 9
24 21 20 17 1 2 5 1 4 4 5 6 7 6 9 13 7 4 5 3 2 5 5 10 6 6 13 13 10 15 11 20 19 11 10 7 13 19 14 17 10 13 11 13 9
26 21 16 7 2 1 5 5 1 5 5 9 6 3 9 5 8 13 3 3 5 6 2 10 14 8 10 7 4 13 10 14 17 17 12 18 10 13 11 15 19 15 16 15 11
28 21 9 0 1 6 6 5 5 8 4 7 5 10 9 10 13 9 5 7 1 4 4 17 8 5 6 6 7 11 8 11 12 3 6 14 10 20 13 19 14 8 10 11 10
31 22 2 0 5 2 3 5 8 7 4 8 9 9 6 11 10 13 5 6 3 8 15 9 7 5 1 10 4 5 7 6 3 2 6 1 9 12 15 8 12 10 8 9 10
33 16 5 4 5 5 5 8 10 5 6 5 6 7 3 8 5 15 8 4 2 0 5 5 11 4 3 2 8 5 2 4 6 4 9 5 6 6 12 5 5 3 5 5 9
22 5 5 5 5 3 8 7 4 4 4 5 8 4 4 9 3 7 5 3 2 1 3 5 7 6 12 13 1 0 5 2 5 4 5 4 7 5 22 21 18 11 6 6 7
4 5 6 9 4 7 8 1 3 3 3 1 4 1 6 7 7 8 4 3 4 5 5 4 11 5 11 2 3 5 0 4 3 5 5 4 3 9 23 20 17 14 9 8 7
5 5 5 11 5 8 4 4 4 5 2 1 4 4 5 6 4 4 5 4 2 4 5 2 4 11 9 3 8 5 4 5 2 4 3 5 2 8 15 17 18 15 11 7 9
4 4 6 6 7 2 2 6 6 3 3 4 2 3 4 4 5 3 5 4 5 4 6 2 2 7 12 16 5 6 11 9 3 4 4 2 4 7 16 15 13 15 15 9 10
3 4 5 7 5 4 6 5 3 6 5 5 4 3 3 3 4 4 4 7 6 6 3 1 2 7 10 5 5 8 15 17 6 3 3 5 4 13 16 12 13 14 14 7 9
3 5 6 6 1 2 5 5 7 8 7 6 5 4 6 4 5 6 5 7 6 4 6 3 2 5 6 16 15 15 16 9 5 4 8 3 11 13 18 16 20 21 17 7 10
4 2 2 6 4 4 2 3 5 7 4 4 4 5 8 5 4 4 6 6 5 3 1 2 4 5 13 17 12 6 14 18 15 17 4 18 9 13 16 15 19 20 17 16 15
2 3 5 4 4 5 4 4 4 9 4 7 5 15 11 5 4 14 9 3 8 1 1 2 5 4 11 5 12 13 16 20 14 18 9 14 8 15 12 19 21 20 19 13 12
3 2 3 3 4 2 1 5 7 8 7 7 8 9 7 7 9 18 14 14 13 4 2 2 3 6 6 9 10 5 11 15 11 17 15 11 15 17 12 15 16 20 15 13 11
Wind_Direction
352 349 344 342 343 339 334 329 326 325 329 328 327 331 330 330 326 72 211 221 212 296 321 303 5 0 107 293 215 118 45 257 269 307 272 317 340 304 272 244 337 270 259 289 255
352 348 344 340 339 338 333 327 324 323 329 324 326 333 330 332 325 265 237 266 242 300 328 9 358 347 8 269 298 123 153 228 216 266 294 293 285 293 297 295 297 295 309 334 161
352 349 345 341 338 335 331 327 323 323 326 326 328 330 329 328 348 321 258 221 224 247 233 253 275 6 355 14 283 261 211 236 266 261 262 280 290 277 281 280 267 297 302 348 350
355 353 350 344 340 333 325 323 323 328 329 328 331 331 326 253 73 257 218 227 241 297 307 15 18 39 336 332 321 313 255 254 283 303 308 293 277 284 265 272 273 268 269 281 209
357 355 350 346 339 330 317 319 322 326 326 330 331 333 352 20 239 231 213 235 250 304 316 27 42 11 351 279 310 211 251 289 279 272 253 276 283 267 277 279 276 258 262 236 233
351 351 350 345 338 322 313 313 310 313 319 326 327 332 11 54 229 215 199 233 240 189 260 185 211 233 275 294 220 286 286 285 269 275 244 258 270 266 288 290 282 266 249 232 221
348 350 349 347 337 322 311 307 304 318 322 328 328 336 13 220 247 216 169 221 207 204 244 226 176 121 241 295 268 261 294 309 293 255 266 250 268 248 270 284 275 271 270 243 224
350 347 346 339 331 322 314 308 302 304 305 307 324 7 246 249 310 247 168 290 244 246 220 221 180 181 171 254 332 314 327 333 291 333 274 210 281 289 278 346 299 292 284 254 183
349 345 341 335 329 328 320 303 297 288 273 276 65 62 280 320 219 243 156 233 262 223 246 235 132 209 35 310 333 313 252 269 304 293 275 257 271 259 302 285 288 291 300 276 211
346 342 335 331 327 330 321 265 37 347 224 212 256 350 275 291 234 221 191 206 234 292 322 331 54 269 26 108 255 258 276 268 270 261 282 276 273 280 243 266 265 271 281 278 260
343 339 332 328 323 334 45 88 15 0 137 224 246 249 282 278 253 219 197 152 229 108 239 255 278 253 255 232 246 271 271 265 261 273 280 274 277 273 284 248 251 267 264 267 260
341 336 330 328 322 326 129 60 201 200 317 235 243 256 269 254 294 337 83 163 216 248 289 333 261 268 270 259 262 257 266 269 280 253 236 279 276 270 275 265 247 249 261 257 236
341 334 329 329 331 116 170 235 295 85 118 303 266 303 311 2 337 320 143 219 235 280 281 235 263 304 313 286 291 254 247 267 268 293 246 273 272 274 266 262 256 237 241 249 228
344 336 328 330 80 283 281 215 353 139 58 320 355 337 348 328 13 24 222 215 307 275 291 269 280 299 302 285 269 272 242 253 266 281 282 184 278 276 269 262 241 232 227 236 227
344 339 328 313 245 318 250 3 274 64 37 307 333 275 306 36 285 350 17 345 257 273 60 268 303 312 311 256 232 247 275 269 266 263 275 273 262 262 251 247 241 237 224 228 219
341 338 331 105 9 245 323 332 57 47 339 321 321 332 5 352 341 337 22 22 335 305 236 263 277 230 222 295 295 257 313 289 276 311 251 255 258 281 255 240 246 226 220 232 219
336 332 235 352 275 349 339 46 42 81 331 300 314 343 336 348 323 349 319 2 3 351 346 318 292 288 157 326 311 15 320 306 302 249 255 327 279 260 289 279 227 207 204 239 223
331 324 226 231 297 345 51 51 62 242 260 287 305 318 11 341 307 340 350 338 267 232 294 352 325 6 1 308 275 310 246 286 300 309 291 261 244 264 2 25 9 275 233 246 244
326 339 328 304 319 69 69 50 195 259 287 307 319 330 302 340 267 347 311 277 272 140 4 332 270 307 299 290 246 305 252 214 267 232 281 268 287 270 353 4 4 9 360 261 266
356 345 303 327 10 52 68 189 228 240 281 42 359 327 303 334 347 357 306 270 329 226 144 282 293 264 314 302 217 210 309 272 216 304 301 283 338 350 349 343 342 348 330 307 301
29 17 272 340 53 45 91 248 284 243 275 260 265 274 287 302 284 299 270 298 232 289 186 236 209 298 319 308 329 331 324 289 237 255 280 311 358 352 340 334 323 329 303 283 256
11 355 316 8 49 31 14 307 285 316 305 288 237 227 231 281 296 287 263 252 339 297 293 247 280 295 289 290 262 359 293 291 285 283 244 264 294 351 343 330 323 325 308 277 215
12 272 323 57 58 336 306 298 278 327 321 357 283 225 273 271 327 250 283 276 312 323 283 345 291 307 327 343 311 325 319 311 234 342 267 306 308 324 345 339 343 336 327 278 192
29 349 326 43 79 51 338 298 327 327 303 355 267 317 346 287 224 286 293 296 319 268 206 140 222 239 266 284 299 298 322 5 311 324 313 325 303 341 354 354 356 354 10 53 76
28 298 181 313 332 343 212 307 324 352 313 323 324 360 311 277 281 241 276 312 301 218 124 182 266 242 271 273 271 335 353 346 7 359 17 332 298 352 347 3 4 5 31 52 74
51 24 355 288 298 324 356 346 309 331 258 297 342 322 305 236 227 300 299 233 255 284 331 173 273 322 305 284 283 286 11 358 357 12 335 334 2 9 352 12 3 3 16 29 74
318 352 104 272 320 354 234 339 308 324 288 244 288 303 299 263 293 282 261 256 251 275 291 268 281 317 278 310 316 158 16 1 11 22 351 359 346 354 7 6 359 0 353 36 43